Weather History for Findlay, OH

Change the Weather History Date:

Tuesday, December 31, 2013

  Actual Average Record
Temperature  
Mean Temperature 18 °F -  
Max Temperature 21 °F 32 °F 63 °F (1951)
Min Temperature 15 °F 19 °F -17 °F (1976)
Degree Days  
Heating Degree Days 47    
Moisture  
Dew Point 12 °F    
Average Humidity 78    
Maximum Humidity 86    
Minimum Humidity 63    
Precipitation  
Precipitation 0.00 in - - ()
Sea Level Pressure  
Sea Level Pressure 30.20 in    
Wind  
Wind Speed 14 mph (West)    
Max Wind Speed 24 mph    
Max Gust Speed 28 mph    
Visibility 6 miles    
Events Snow    
Averages and records for this station are not official NWS values.
T = Trace of Precipitation, MM = Missing Value Source: NWS Daily Summary

Daily Weather History Graph

Daily Weather History Graph

Search for Another Location

Airport:

Trip Planner

Search our weather history database for the weather conditions in past years. The results will help you decide how hot, cold, wet, or windy it might be!

Date:

Astronomy

Dec. 31, 2013 Rise Set
Actual Time 7:59 AM EST 5:16 PM EST
Civil Twilight 7:28 AM EST 5:47 PM EST
Nautical Twilight 6:53 AM EST 6:21 PM EST
Astronomical Twilight 6:20 AM EST 6:55 PM EST
Moon 6:51 AM EST (12/31) 4:51 PM EST (12/31)
Length of Visible Light 10h 18m
Length of Day
9h 16m
Waning Crescent, 1% of the Moon is Illuminated
Dec 31
Waning Crescent
Jan 1
New
Jan 7
First Quarter
Jan 15
Full
Jan 24
Last Quarter

Hourly Weather History & Observations

Time (EST) Temp. Windchill Dew Point Humidity Pressure Visibility Wind Dir Wind Speed Gust Speed Precip Events Conditions
12:53 AM 21.0 °F 8.1 °F 12.9 °F 71% 30.14 in 10.0 mi WSW 13.8 mph - N/A   Overcast
1:39 AM 19.4 °F 7.2 °F 15.8 °F 86% 30.10 in 2.0 mi WSW 11.5 mph - 0.00 in Snow Light Snow
1:46 AM 19.4 °F 6.6 °F 15.8 °F 86% 30.11 in 1.8 mi WSW 12.7 mph - 0.00 in Snow Light Snow
1:53 AM 19.9 °F 5.2 °F 15.1 °F 81% 30.14 in 1.8 mi WSW 17.3 mph 24.2 mph 0.00 in Snow Light Snow
2:00 AM 19.4 °F 5.5 °F 15.8 °F 86% 30.10 in 3.0 mi WSW 15.0 mph 24.2 mph 0.00 in Snow Light Snow
2:15 AM 19.4 °F 5.0 °F 15.8 °F 86% 30.11 in 2.0 mi WSW 16.1 mph - 0.00 in Snow Light Snow
2:24 AM 19.4 °F 7.9 °F 15.8 °F 86% 30.10 in 1.5 mi WSW 10.4 mph - 0.00 in Snow Light Snow
2:31 AM 19.4 °F 7.9 °F 15.8 °F 86% 30.10 in 3.0 mi WSW 10.4 mph - 0.00 in Snow Light Snow
2:53 AM 19.9 °F 11.1 °F 16.0 °F 85% 30.13 in 3.0 mi SW 6.9 mph - 0.00 in Snow Light Snow
3:05 AM 19.4 °F 6.0 °F 15.8 °F 86% 30.10 in 2.0 mi WSW 13.8 mph - 0.00 in Snow Light Snow
3:17 AM 19.4 °F 6.6 °F 15.8 °F 86% 30.10 in 3.0 mi WSW 12.7 mph - 0.00 in Snow Light Snow
3:27 AM 19.4 °F 6.6 °F 15.8 °F 86% 30.09 in 2.5 mi WSW 12.7 mph - 0.00 in Snow Light Snow
3:43 AM 19.4 °F 6.6 °F 15.8 °F 86% 30.09 in 3.0 mi West 12.7 mph - 0.00 in Snow Light Snow
3:53 AM 19.0 °F 4.5 °F 15.1 °F 85% 30.12 in 2.5 mi West 16.1 mph 25.3 mph 0.00 in Snow Light Snow
3:59 AM 19.4 °F 5.0 °F 15.8 °F 86% 30.09 in 3.0 mi West 16.1 mph - 0.00 in Snow Light Snow
4:49 AM 19.4 °F 4.5 °F 14.0 °F 80% 30.08 in 2.0 mi West 17.3 mph - 0.00 in Snow Light Snow
4:53 AM 19.0 °F 4.5 °F 14.0 °F 81% 30.11 in 2.0 mi West 16.1 mph - 0.00 in Snow Light Snow
5:16 AM 19.4 °F 4.1 °F 15.8 °F 86% 30.09 in 1.0 mi West 18.4 mph 21.9 mph 0.00 in Snow Light Snow
5:21 AM 17.6 °F 1.3 °F 14.0 °F 86% 30.09 in 0.8 mi West 19.6 mph - 0.00 in Snow Light Snow
5:28 AM 17.6 °F 2.2 °F 14.0 °F 86% 30.10 in 1.0 mi West 17.3 mph - 0.00 in Snow Light Snow
5:53 AM 17.1 °F 5.0 °F 12.9 °F 84% 30.13 in 1.8 mi West 10.4 mph - 0.00 in Snow Light Snow
6:09 AM 17.6 °F 3.7 °F 12.2 °F 79% 30.11 in 3.0 mi West 13.8 mph - 0.00 in Snow Light Snow
6:53 AM 17.1 °F 1.5 °F 12.0 °F 81% 30.16 in 2.5 mi West 17.3 mph - 0.00 in Snow Light Snow
7:01 AM 17.6 °F 2.7 °F 12.2 °F 79% 30.13 in 5.0 mi West 16.1 mph - 0.00 in Snow Light Snow
7:53 AM 16.0 °F 1.7 °F 10.0 °F 77% 30.18 in 8.0 mi West 13.8 mph 23.0 mph 0.00 in Snow Light Snow
8:27 AM 15.8 °F -1.1 °F 8.6 °F 73% 30.18 in 10.0 mi West 19.6 mph 25.3 mph 0.00 in   Overcast
8:53 AM 15.1 °F -0.6 °F 8.1 °F 74% 30.22 in 10.0 mi West 16.1 mph - 0.00 in   Overcast
9:50 AM 15.8 °F 0.9 °F 8.6 °F 73% 30.24 in - West 15.0 mph 25.3 mph N/A   Mostly Cloudy
9:53 AM 16.0 °F -0.4 °F 8.1 °F 71% 30.27 in - West 18.4 mph 25.3 mph N/A   Mostly Cloudy
10:53 AM 15.1 °F -2.0 °F 8.1 °F 74% 30.31 in 4.0 mi West 19.6 mph - 0.00 in Snow Light Snow
11:08 AM 15.8 °F -0.2 °F 8.6 °F 73% 30.28 in 9.0 mi West 17.3 mph - 0.00 in   Mostly Cloudy
11:32 AM 15.8 °F -1.9 °F 8.6 °F 73% 30.30 in 10.0 mi WSW 21.9 mph - 0.00 in   Mostly Cloudy
11:53 AM 16.0 °F -2.5 °F 8.1 °F 71% 30.33 in 10.0 mi West 24.2 mph - 0.00 in   Mostly Cloudy
12:23 PM 17.6 °F 0.9 °F 8.6 °F 68% 30.30 in 10.0 mi West 20.7 mph - N/A   Scattered Clouds
12:49 PM 17.6 °F 0.9 °F 8.6 °F 68% 30.31 in 10.0 mi West 20.7 mph - N/A   Mostly Cloudy
12:53 PM 19.0 °F 2.4 °F 9.0 °F 65% 30.34 in 10.0 mi West 21.9 mph 27.6 mph N/A   Mostly Cloudy
1:53 PM 18.0 °F 1.3 °F 9.0 °F 68% 30.31 in 10.0 mi West 20.7 mph 27.6 mph N/A   Mostly Cloudy
2:05 PM 19.4 °F 3.6 °F 8.6 °F 63% 30.28 in 10.0 mi West 19.6 mph 24.2 mph N/A   Scattered Clouds
2:29 PM 17.6 °F 2.7 °F 8.6 °F 68% 30.28 in 10.0 mi West 16.1 mph - N/A   Mostly Cloudy
2:53 PM 18.0 °F 3.6 °F 9.0 °F 68% 30.30 in 10.0 mi West 15.0 mph - N/A   Mostly Cloudy
3:25 PM 19.4 °F 7.2 °F 10.4 °F 68% 30.26 in 10.0 mi WSW 11.5 mph - N/A   Mostly Cloudy
3:53 PM 19.0 °F 5.6 °F 10.9 °F 71% 30.31 in 10.0 mi West 13.8 mph - N/A   Overcast
4:53 PM 19.0 °F 7.5 °F 10.9 °F 71% 30.31 in 10.0 mi West 10.4 mph - N/A   Mostly Cloudy
5:53 PM 18.0 °F 9.8 °F 12.0 °F 78% 30.31 in 10.0 mi West 5.8 mph - N/A   Overcast
6:53 PM 19.0 °F 12.3 °F 12.0 °F 74% 30.31 in 10.0 mi West 4.6 mph - N/A   Overcast
7:53 PM 19.9 °F 10.1 °F 12.9 °F 74% 30.31 in 10.0 mi West 8.1 mph - N/A   Overcast
8:53 PM 19.9 °F 12.1 °F 14.0 °F 78% 30.32 in 5.0 mi West 5.8 mph - 0.00 in Snow Light Snow
9:53 PM 19.9 °F 13.4 °F 15.1 °F 81% 30.31 in 10.0 mi WNW 4.6 mph - 0.00 in   Overcast
10:53 PM 19.9 °F 12.1 °F 15.1 °F 81% 30.33 in - NW 5.8 mph - N/A   Overcast
11:53 PM 19.0 °F 11.1 °F 15.1 °F 85% 30.34 in 10.0 mi NNW 5.8 mph - N/A   Overcast